Location: Alsip
(41.6689°N, 87.7387°W)
Time: 12:47:30
(UTC+00:00)

Cosmos 2084 - Pass Details

Date: 14 July 2020
Orbit: 571 x 611 km, 62.8° (Epoch: 04 August)

Event Time Altitude Azimuth Distance (km) Brightness Sun altitude
Rises 01:54:40 0° 322° (NW) 2,880 8.8 -5.5°
Reaches altitude 10° 01:56:57 10° 320° (NW) 1,971 7.7 -5.9°
Maximum altitude 02:01:24 71° 237° (WSW) 645 3.7 -6.5°
Drops below altitude 10° 02:05:47 10° 153° (SSE) 1,943 5.6 -7.2°
Enters shadow 02:06:28 - 153° (SSE) 2,217 5.8 -7.3°
